Location: Piotrkow Trybunalski
(51.4000°N, 19.6830°E)
Time: 11:19:41
(UTC+01:00)

A-11 Canister half - All Passes

Search period start: 28 January 2023 00:00
Search period end: 07 February 2023 00:00
Orbit: 1525 x 1683 km, 47.3° (Epoch: 25 January)

Date Brightness Start Highest point End Pass type
(mag) Time Alt. Az. Time Alt. Az. Time Alt. Az.
28 Jan - 06:03:26 10° S 06:10:41 26° SE 06:18:01 10° E visible
28 Jan - 08:05:10 10° SW 08:14:11 56° SSE 08:23:27 10° E daylight
28 Jan - 10:09:17 10° W 10:18:37 70° S 10:28:17 10° ESE daylight
28 Jan - 12:13:56 10° W 12:23:02 52° SSW 12:32:26 10° SE daylight
28 Jan - 14:19:29 10° W 14:26:29 23° SW 14:33:38 10° S daylight
29 Jan - 05:42:01 10° S 05:49:04 25° SE 05:56:14 10° E visible
29 Jan - 07:43:33 10° SW 07:52:32 55° SSE 08:01:43 10° E daylight
29 Jan - 09:47:37 10° W 09:56:56 70° S 10:06:34 10° E daylight
29 Jan - 11:52:15 10° W 12:01:22 53° SSW 12:10:46 10° SE daylight
29 Jan - 13:57:41 10° W 14:04:52 24° SW 14:12:11 10° S daylight
30 Jan - 05:20:36 10° S 05:27:29 24° SE 05:34:26 10° E visible
30 Jan - 07:21:56 10° SW 07:30:52 53° SSE 07:40:01 10° E daylight
30 Jan - 09:25:57 10° W 09:35:15 70° S 09:44:51 10° E daylight
30 Jan - 11:30:34 10° W 11:39:42 54° SSW 11:49:06 10° SE daylight
30 Jan - 13:35:55 10° W 13:43:15 25° SW 13:50:44 10° S daylight
31 Jan - 04:59:12 10° S 05:05:53 23° SE 05:12:38 10° E visible
31 Jan - 07:00:20 10° SW 07:09:13 52° SSE 07:18:17 10° E daylight
31 Jan - 09:04:16 10° W 09:13:34 70° S 09:23:08 10° E daylight
31 Jan - 11:08:53 10° W 11:18:02 56° SSW 11:27:27 10° SE daylight
31 Jan - 13:14:10 10° W 13:21:37 26° SW 13:29:15 10° S daylight
01 Feb - 04:37:49 10° S 04:44:18 22° SE 04:50:49 10° E visible
01 Feb - 06:38:43 10° SW 06:47:34 51° SSE 06:56:34 10° E visible
01 Feb - 08:42:37 10° WSW 08:51:53 70° S 09:01:25 10° E daylight
01 Feb - 10:47:13 10° W 10:56:21 57° SSW 11:05:47 10° SE daylight
01 Feb - 12:52:25 10° W 13:00:00 28° SW 13:07:46 10° S daylight
02 Feb - 04:16:27 10° S 04:22:42 20° SE 04:28:59 10° E visible
02 Feb - 06:17:08 10° SW 06:25:55 49° SSE 06:34:51 10° E visible
02 Feb - 08:20:57 10° WSW 08:30:12 70° S 08:39:42 10° E daylight
02 Feb - 10:25:32 10° W 10:34:41 58° SSW 10:44:06 10° SE daylight
02 Feb - 12:30:40 10° W 12:38:23 29° SW 12:46:16 10° SSE daylight
03 Feb - 03:55:07 10° S 04:01:07 19° SE 04:07:09 10° E visible
03 Feb - 05:55:32 10° SW 06:04:16 48° SSE 06:13:09 10° E visible
03 Feb - 07:59:17 10° WSW 08:08:31 70° S 08:18:00 10° E daylight
03 Feb - 10:03:51 10° W 10:13:01 59° SSW 10:22:26 10° SE daylight
03 Feb - 12:08:56 10° W 12:16:45 30° SW 12:24:45 10° SSE daylight
04 Feb - 03:33:48 10° SSE 03:39:32 18° SE 03:45:17 10° E visible
04 Feb - 05:33:57 10° SW 05:42:38 47° SSE 05:51:26 10° E visible
04 Feb - 07:37:37 10° WSW 07:46:51 69° S 07:56:17 10° E daylight
04 Feb - 09:42:11 10° W 09:51:21 60° SSW 10:00:46 10° ESE daylight
04 Feb - 11:47:13 10° W 11:55:07 31° SW 12:03:14 10° SSE daylight
05 Feb - 03:12:31 10° SSE 03:17:58 17° SE 03:23:24 10° E visible
05 Feb - 05:12:22 10° SW 05:21:00 45° SSE 05:29:43 10° E visible
05 Feb - 07:15:58 10° WSW 07:25:10 69° S 07:34:35 10° E daylight
05 Feb - 09:20:31 10° W 09:29:41 61° SSW 09:39:05 10° ESE daylight
05 Feb - 11:25:30 10° W 11:33:29 32° SW 11:41:42 10° SSE daylight
06 Feb - 02:51:16 10° SSE 02:56:22 16° SE 03:01:30 10° E visible
06 Feb - 04:50:47 10° SW 04:59:21 44° SSE 05:08:01 10° E visible
06 Feb - 06:54:18 10° WSW 07:03:29 68° S 07:12:52 10° E daylight
06 Feb - 08:58:50 10° W 09:08:00 62° SSW 09:17:24 10° ESE daylight
06 Feb - 11:03:46 10° W 11:11:51 34° SW 11:20:09 10° SSE daylight
